| time (UTC) | temp C | wind direction | speed KPH | gust KPH | rain 1hr cm | rain 24hr cm | rain mn cm | humidity % | barometer mb |
| 20260504232211 | 9 | 201 | 12.9 | 22.5 | 0.00 | 0.00 | 0.00 | 46 | 1017.6 |
| 20260504225409 | 11 | 177 | 17.7 | 24.1 | 0.00 | 0.00 | 0.00 | 36 | 1017.1 |
| 20260504224412 | 12 | 199 | 8.0 | 20.9 | 0.00 | 0.00 | 0.00 | 31 | 1016.6 |
| 20260504223511 | 13 | 165 | 11.3 | 16.1 | 0.00 | 0.00 | 0.00 | 32 | 1016.2 |
| 20260504222526 | 13 | 134 | 8.0 | 12.9 | 0.00 | 0.00 | 0.00 | 31 | 1016.3 |
| 20260504221611 | 14 | 148 | 9.7 | 14.5 | 0.00 | 0.00 | 0.00 | 31 | 1016.5 |
| 20260504215611 | 13 | 143 | 6.4 | 9.7 | 0.00 | 0.00 | 0.00 | 31 | 1016.6 |
| 20260504214611 | 12 | 148 | 14.5 | 25.7 | 0.00 | 0.00 | 0.00 | 33 | 1016.8 |
| 20260504213611 | 11 | 199 | 9.7 | 16.1 | 0.00 | 0.00 | 0.00 | 36 | 1016.9 |
| 20260504212610 | 11 | 206 | 11.3 | 19.3 | 0.00 | 0.00 | 0.00 | 37 | 1017.3 |
| 20260504210612 | 10 | 179 | 14.5 | 19.3 | 0.00 | 0.00 | 0.00 | 39 | 1017.2 |
| 20260504205711 | 11 | 187 | 14.5 | 20.9 | 0.00 | 0.00 | 0.00 | 34 | 1017.4 |
| 20260504204709 | 13 | 170 | 12.9 | 20.9 | 0.00 | 0.00 | 0.00 | 28 | 1017.5 |
| 20260504201810 | 13 | 72 | 1.6 | 6.4 | 0.00 | 0.00 | 0.00 | 32 | 1016.6 |
| 20260504200910 | 14 | 24 | 3.2 | 4.8 | 0.00 | 0.00 | 0.00 | 34 | 1016.9 |
| 20260504195910 | 13 | 65 | 3.2 | 8.0 | 0.00 | 0.00 | 0.00 | 37 | 1017.2 |
| 20260504195009 | 12 | 9 | 9.7 | 14.5 | 0.00 | 0.00 | 0.00 | 40 | 1017.6 |
| 20260504194012 | 12 | 325 | 4.8 | 8.0 | 0.00 | 0.00 | 0.00 | 41 | 1017.6 |
| 20260504193010 | 11 | 74 | 6.4 | 12.9 | 0.00 | 0.00 | 0.00 | 44 | 1018.0 |
| 20260504192012 | 9 | 12 | 11.3 | 24.1 | 0.00 | 0.00 | 0.00 | 48 | 1018.3 |
| 20260504191009 | 8 | 155 | 9.7 | 16.1 | 0.00 | 0.00 | 0.00 | 52 | 1018.8 |
| 20260504190010 | 9 | 192 | 20.9 | 32.2 | 0.00 | 0.00 | 0.00 | 50 | 1018.9 |
| 20260504185011 | 10 | 179 | 22.5 | 32.2 | 0.00 | 0.00 | 0.00 | 46 | 1019.0 |
| 20260504184011 | 11 | 172 | 22.5 | 33.8 | 0.00 | 0.00 | 0.00 | 39 | 1018.5 |
| 20260504183012 | 13 | 172 | 14.5 | 32.2 | 0.00 | 0.00 | 0.00 | 31 | 1018.2 |
| 20260504182012 | 14 | 175 | 12.9 | 19.3 | 0.00 | 0.00 | 0.00 | 28 | 1017.6 |
| 20260504181109 | 13 | 181 | 8.0 | 11.3 | 0.00 | 0.00 | 0.00 | 27 | 1017.6 |
| 20260504180110 | 13 | 201 | 4.8 | 9.7 | 0.00 | 0.00 | 0.00 | 29 | 1017.8 |
| 20260504175112 | 12 | 179 | 8.0 | 11.3 | 0.00 | 0.00 | 0.00 | 31 | 1017.9 |
| 20260504173127 | 11 | 128 | 8.0 | 12.9 | 0.00 | 0.00 | 0.00 | 30 | 1018.5 |
| 20260504170209 | 12 | 165 | 14.5 | 20.9 | 0.00 | 0.00 | 0.00 | 29 | 1018.5 |
| 20260504150810 | 8 | 168 | 12.9 | 19.3 | 0.00 | 0.00 | 0.00 | 38 | 1019.4 |
| 20260504141009 | 7 | 123 | 6.4 | 12.9 | 0.00 | 0.00 | 0.00 | 42 | 1019.0 |
| 20260504130110 | 3 | 203 | 4.8 | 6.4 | 0.00 | 0.00 | 0.00 | 48 | 1018.6 |
| 20260504120310 | 2 | 173 | 8.0 | 11.3 | 0.00 | 0.00 | 0.00 | 48 | 1018.1 |
| 20260504110511 | 2 | 165 | 8.0 | 11.3 | 0.00 | 0.00 | 0.00 | 47 | 1018.5 |
| 20260504081811 | 3 | 158 | 6.4 | 9.7 | 0.00 | 0.00 | 0.00 | 46 | 1019.3 |
| 20260504080910 | 3 | 166 | 9.7 | 11.3 | 0.00 | 0.00 | 0.00 | 45 | 1019.3 |
| 20260504060111 | 3 | 4 | 4.8 | 8.0 | 0.00 | 0.00 | 0.00 | 47 | 1020.6 |
| 20260504050324 | 4 | 182 | 9.7 | 16.1 | 0.00 | 0.00 | 0.00 | 46 | 1020.9 |
| 20260504043423 | 5 | 201 | 4.8 | 6.4 | 0.00 | 0.00 | 0.00 | 45 | 1021.5 |
| 20260504042424 | 5 | 153 | 8.0 | 9.7 | 0.00 | 0.00 | 0.00 | 45 | 1021.5 |
| 20260504041424 | 5 | 180 | 6.4 | 11.3 | 0.00 | 0.00 | 0.00 | 45 | 1021.5 |
| 20260504040524 | 5 | 160 | 9.7 | 16.1 | 0.00 | 0.00 | 0.00 | 45 | 1021.6 |
| 20260504035526 | 5 | 181 | 3.2 | 4.8 | 0.00 | 0.00 | 0.00 | 44 | 1021.5 |
| 20260504034526 | 5 | 173 | 6.4 | 9.7 | 0.00 | 0.00 | 0.00 | 44 | 1021.5 |
| 20260504033524 | 5 | 186 | 6.4 | 9.7 | 0.00 | 0.00 | 0.00 | 44 | 1021.5 |
| 20260504032526 | 6 | 162 | 8.0 | 11.3 | 0.00 | 0.00 | 0.00 | 44 | 1021.5 |
| 20260504030627 | 6 | 175 | 9.7 | 12.9 | 0.00 | 0.00 | 0.00 | 43 | 1021.5 |
| 20260504025624 | 6 | 165 | 4.8 | 8.0 | 0.00 | 0.00 | 0.00 | 41 | 1021.5 |
| 20260504023725 | 7 | 166 | 4.8 | 8.0 | 0.00 | 0.00 | 0.00 | 40 | 1021.5 |
| 20260504022723 | 8 | 165 | 6.4 | 11.3 | 0.00 | 0.00 | 0.00 | 38 | 1021.5 |
| 20260504014823 | 9 | 106 | 4.8 | 9.7 | 0.00 | 0.00 | 0.00 | 34 | 1021.7 |
| 20260504013840 | 10 | 7 | 4.8 | 8.0 | 0.00 | 0.00 | 0.00 | 31 | 1022.0 |
| 20260504012924 | 10 | 82 | 3.2 | 8.0 | 0.00 | 0.00 | 0.00 | 30 | 1021.7 |
| 20260504010926 | 11 | 85 | 12.9 | 22.5 | 0.00 | 0.00 | 0.00 | 28 | 1021.4 |
| 20260504005024 | 11 | 256 | 1.6 | 8.0 | 0.00 | 0.00 | 0.00 | 26 | 1021.2 |
| 20260504004123 | 12 | 332 | 4.8 | 6.4 | 0.00 | 0.00 | 0.00 | 26 | 1021.0 |
| 20260504003124 | 12 | 353 | 3.2 | 6.4 | 0.00 | 0.00 | 0.00 | 27 | 1020.9 |
| 20260504002223 | 12 | 22 | 0.0 | 0.0 | 0.00 | 0.00 | 0.00 | 26 | 1020.8 |
| 20260504000324 | 12 | 147 | 6.4 | 11.3 | 0.00 | 0.00 | 0.00 | 23 | 1021.0 |
| 20260503235423 | 12 | 193 | 1.6 | 6.4 | 0.00 | 0.00 | 0.00 | 24 | 1020.9 |
| 20260503232425 | 13 | 104 | 4.8 | 9.7 | 0.00 | 0.00 | 0.00 | 24 | 1021.2 |